Weather History for KLXV - February, 2014

Change the Weather History Date:

Tuesday, February 11, 2014

  Actual Average Record
Temperature  
Mean Temperature 10 °F -  
Max Temperature 27 °F 31 °F 48 °F (1990)
Min Temperature -7 °F 4 °F -15 °F (1985)
Degree Days  
Heating Degree Days 55 48  
Month to date heating degree days 577 528  
Since 1 July heating degree days 6816 6925  
Cooling Degree Days 0 0  
Month to date cooling degree days 0 0  
Year to date cooling degree days 0 0  
Moisture  
Dew Point 5 °F    
Average Humidity 62    
Maximum Humidity 91    
Minimum Humidity 33    
Precipitation  
Precipitation 0.02 in 0.02 in 0.19 in (2000)
Month to date precipitation 0.63 0.25  
Year to date precipitation 3.59 0.87  
Sea Level Pressure  
Sea Level Pressure 30.11 in    
Wind  
Wind Speed 8 mph (NNW)    
Max Wind Speed 23 mph    
Max Gust Speed 28 mph    
Visibility 7 miles    
Events Snow    
T = Trace of Precipitation, MM = Missing Value Source: NWS Daily Summary

Daily Weather History Graph

Daily Weather History Graph

Search for Another Location

Airport or City:

Trip Planner

Search our weather history database for the weather conditions in past years. The results will help you decide how hot, cold, wet, or windy it might be!

Date:

Astronomy

Feb. 11, 2014 Rise Set
Actual Time 7:01 AM MST 5:37 PM MST
Civil Twilight 6:34 AM MST 6:05 PM MST
Nautical Twilight 6:02 AM MST 6:37 PM MST
Astronomical Twilight 5:31 AM MST 7:08 PM MST
Moon 3:01 PM MST (2/11) 4:40 AM MST (2/11)
Length of Visible Light 11h 31m
Length of Day
10h 36m
Waxing Gibbous, 91% of the Moon is Illuminated
Feb 11
Waxing Gibbous
Feb 14
Full
Feb 22
Last Quarter
Mar 1
New
Mar 8
First Quarter

Hourly Weather History & Observations

Time (MST) Temp. Windchill Dew Point Humidity Pressure Visibility Wind Dir Wind Speed Gust Speed Precip Events Conditions
12:53 AM 9.0 °F -5.1 °F 3.0 °F 77% 30.09 in 10.0 mi NE 10.4 mph - N/A   Overcast
1:53 AM 6.1 °F -7.8 °F -0.0 °F 76% 30.12 in 10.0 mi NE 9.2 mph - N/A   Overcast
2:40 AM 1.9 °F -11.8 °F -2.9 °F 80% 30.09 in 10.0 mi NNE 8.1 mph - N/A   Scattered Clouds
2:53 AM 1.9 °F -14.7 °F -2.9 °F 80% 30.16 in 10.0 mi NNE 11.5 mph - N/A   Clear
3:53 AM -0.0 °F -16.3 °F -2.9 °F 88% 30.16 in 10.0 mi ENE 10.4 mph - N/A   Clear
4:53 AM -2.0 °F - -5.1 °F 87% 30.17 in 10.0 mi Calm Calm - N/A   Clear
5:53 AM -4.0 °F -12.4 °F -8.0 °F 83% 30.22 in 10.0 mi North 3.5 mph - N/A   Clear
6:53 AM -5.1 °F -17.6 °F -11.0 °F 76% 30.21 in 10.0 mi NNE 5.8 mph - N/A   Clear
7:53 AM 1.9 °F - -4.0 °F 76% 30.17 in 10.0 mi Calm Calm - N/A   Clear
8:53 AM 10.0 °F - 3.0 °F 73% 30.11 in 10.0 mi Calm Calm - N/A   Clear
9:53 AM 18.0 °F - 1.9 °F 50% 30.08 in 10.0 mi Calm Calm - N/A   Clear
10:53 AM 24.1 °F 19.7 °F -0.0 °F 35% 30.05 in 10.0 mi Variable 3.5 mph - N/A   Clear
11:53 AM 24.1 °F 13.1 °F 1.9 °F 38% 30.03 in 10.0 mi North 11.5 mph - N/A   Clear
12:53 PM 25.0 °F 16.3 °F 3.9 °F 41% 30.03 in 10.0 mi NW 8.1 mph 17.3 mph N/A   Scattered Clouds
1:53 PM 26.1 °F 18.4 °F 1.0 °F 34% 29.99 in 10.0 mi Variable 6.9 mph - N/A   Partly Cloudy
2:53 PM 26.1 °F 15.6 °F 3.9 °F 39% 30.00 in 10.0 mi NNW 11.5 mph 18.4 mph N/A   Clear
3:53 PM 24.1 °F 11.0 °F 3.9 °F 42% 30.05 in 10.0 mi NNW 16.1 mph 20.7 mph N/A   Clear
4:53 PM 19.9 °F 7.3 °F 5.0 °F 52% 30.14 in 10.0 mi NNW 12.7 mph 21.9 mph N/A   Clear
5:53 PM 17.1 °F 2.0 °F 6.1 °F 62% 30.18 in 10.0 mi NW 16.1 mph 21.9 mph N/A   Clear
6:53 PM 18.0 °F 7.7 °F 8.1 °F 65% 30.20 in 10.0 mi NW 8.1 mph - N/A   Overcast
7:53 PM 17.1 °F 7.6 °F 10.9 °F 77% 30.17 in 5.0 mi NW 6.9 mph - 0.00 in Snow Light Snow
8:28 PM 17.1 °F 5.8 °F 12.0 °F 81% 30.08 in 2.5 mi WNW 9.2 mph - 0.00 in Snow Light Snow
8:53 PM 16.0 °F 8.8 °F 12.9 °F 88% 30.14 in 2.0 mi NNW 4.6 mph - 0.00 in Snow Light Snow
9:31 PM 17.1 °F 7.6 °F 12.0 °F 81% 30.10 in 4.0 mi NW 6.9 mph - 0.01 in Snow Light Snow
9:53 PM 17.1 °F 7.6 °F 12.0 °F 81% 30.08 in 4.0 mi NNW 6.9 mph 19.6 mph 0.01 in Snow Light Snow
10:24 PM 17.1 °F 5.0 °F 12.0 °F 81% 30.10 in 2.0 mi WNW 10.4 mph - 0.00 in Snow Light Snow
10:36 PM 17.1 °F 2.5 °F 12.0 °F 81% 30.11 in 1.5 mi WNW 15.0 mph 23.0 mph 0.00 in Snow Light Snow
10:53 PM 17.1 °F 3.6 °F 12.0 °F 81% 30.07 in 1.2 mi WNW 12.7 mph - 0.00 in Snow Light Snow
11:14 PM 17.1 °F 5.0 °F 12.9 °F 84% 30.12 in 1.2 mi NW 10.4 mph - 0.01 in Snow Light Snow
11:27 PM 17.1 °F 4.3 °F 12.0 °F 81% 30.12 in 2.0 mi WNW 11.5 mph - 0.01 in Snow Light Snow
11:34 PM 17.1 °F 5.0 °F 12.0 °F 81% 30.12 in 1.5 mi NW 10.4 mph - 0.01 in Snow Light Snow
11:53 PM 17.1 °F 5.0 °F 12.9 °F 84% 30.08 in 1.8 mi NW 10.4 mph - 0.01 in Snow Light Snow